Tracking 27111 objects as of 28-Mar-2023
HD Live streaming from Space Station
objects crossing your sky now

STARLINK-5332

Track STARLINK-5332 now!
10-day predictions
STARLINK-5332 is classified as:


NORAD ID: 55285
Int'l Code: 2023-010S
Perigee: 364.0 km
Apogee: 368.4 km
Inclination: 70.0 °
Period: 91.7 minutes
Semi major axis: 6737 km
RCS: Unknown
Launch date: January 19, 2023
Source: United States (US)
Launch site: AIR FORCE WESTERN TEST RANGE (AFWTR)
Your satellite tracking list
Your tracking list is empty




NASA's NSSDC Master Catalog

Two Line Element Set (TLE):
1 55285U 23010S   23086.82509227 -.00001279  00000-0 -88678-5 0  9998
2 55285  70.0003 239.5826 0003303 262.6155  97.4665 15.69938116 12265
Source of the keplerian elements: AFSPC